Location: Ferchesar
(52.6477°N, 12.4298°E)
Time: 13:23:26
(UTC+02:00)

Transit 4A - Pass Details

Date: 05 March 2021
Orbit: 869 x 975 km, 66.8° (Epoch: 16 April)

Event Time Altitude Azimuth Distance (km) Brightness Sun altitude
Rises 10:42:50 0° 216° (SW) 3,658 11.3 27.8°
Reaches altitude 10° 10:45:24 10° 216° (SW) 2,708 10.8 28.0°
Maximum altitude 10:51:45 88° 131° (SE) 965 8.6 28.4°
Drops below altitude 10° 10:58:01 10° 40° (NE) 2,665 10.1 28.8°
Sets 11:00:31 0° 40° (NE) 3,597 10.7 29.0°
